TimeHST,TemperatureF,Dew PointF,Humidity,Sea Level PressureIn,VisibilityMPH,Wind Direction,Wind SpeedMPH,Gust SpeedMPH,PrecipitationIn,Events,Conditions,WindDirDegrees,DateUTC
12:56 AM,68.0,55.0,63,29.99,10.0,East,3.5,-,N/A,,Clear,100,2013-11-25 10:56:00
1:56 AM,66.9,55.0,66,29.98,10.0,East,3.5,-,N/A,,Clear,80,2013-11-25 11:56:00
2:56 AM,68.0,55.0,63,29.98,10.0,ENE,5.8,-,N/A,,Clear,70,2013-11-25 12:56:00
3:56 AM,68.0,55.9,65,29.99,10.0,ENE,5.8,-,N/A,,Clear,70,2013-11-25 13:56:00
4:56 AM,68.0,55.9,65,29.99,10.0,East,5.8,-,N/A,,Clear,80,2013-11-25 14:56:00
5:56 AM,68.0,55.9,65,30.00,10.0,East,4.6,-,N/A,,Clear,80,2013-11-25 15:56:00
6:56 AM,68.0,57.0,68,30.01,10.0,ENE,5.8,-,N/A,,Clear,70,2013-11-25 16:56:00
7:56 AM,72.0,57.9,61,30.02,10.0,ENE,3.5,-,N/A,,Clear,70,2013-11-25 17:56:00
8:56 AM,75.9,61.0,60,30.04,10.0,NW,3.5,-,N/A,,Clear,310,2013-11-25 18:56:00
9:56 AM,78.1,62.1,58,30.04,10.0,NW,6.9,-,N/A,,Clear,310,2013-11-25 19:56:00
10:56 AM,79.0,61.0,54,30.03,10.0,NW,6.9,-,N/A,,Partly Cloudy,310,2013-11-25 20:56:00
11:56 AM,79.0,61.0,54,30.01,10.0,NW,9.2,-,N/A,,Scattered Clouds,320,2013-11-25 21:56:00
12:56 PM,80.1,61.0,52,29.99,10.0,NW,9.2,-,N/A,,Clear,320,2013-11-25 22:56:00
1:56 PM,80.1,62.1,54,29.97,10.0,WNW,8.1,-,N/A,,Clear,300,2013-11-25 23:56:00
2:56 PM,80.1,63.0,56,29.97,10.0,WNW,6.9,-,N/A,,Clear,300,2013-11-26 00:56:00
3:56 PM,79.0,62.1,56,29.98,9.0,WNW,6.9,-,N/A,,Mostly Cloudy,290,2013-11-26 01:56:00
4:56 PM,79.0,63.0,58,29.99,10.0,West,8.1,-,N/A,,Clear,280,2013-11-26 02:56:00
5:56 PM,78.1,64.0,62,30.00,10.0,NW,4.6,-,N/A,,Clear,310,2013-11-26 03:56:00
6:56 PM,75.9,63.0,64,30.03,10.0,NE,3.5,-,N/A,,Overcast,40,2013-11-26 04:56:00
7:56 PM,72.0,61.0,68,30.05,10.0,SE,3.5,-,N/A,,Clear,130,2013-11-26 05:56:00
8:56 PM,72.0,57.9,61,30.07,10.0,ENE,3.5,-,N/A,,Clear,70,2013-11-26 06:56:00
9:56 PM,71.1,55.9,59,30.08,10.0,ENE,3.5,-,N/A,,Clear,70,2013-11-26 07:56:00
10:56 PM,70.0,55.9,61,30.08,10.0,ENE,4.6,-,N/A,,Clear,70,2013-11-26 08:56:00
11:56 PM,70.0,55.0,59,30.08,10.0,ESE,4.6,-,N/A,,Clear,120,2013-11-26 09:56:00